Regional Weather Roundup
Issued by NWS

Home | Current Version | Previous Version | Graphics & Text | Print | Product List | Glossary On
Versions: 1 2 3 4 5 6 7 8 9 10 11 12 13 14 15 16 17 18 19 20 21 22 23 24 25 26 27 28 29 30 31 32 33 34 35 36 37 38 39 40 41 42 43 44 45 46 47 48 49 50
000
ASUS45 KBOU 010307
RWRCO

WEATHER ROUNDUP FOR COLORADO
NATIONAL WEATHER SERVICE DENVER/BOULDER CO
900 PM MDT SUN AUG 31 2014

NOTE: "FAIR" INDICATES FEW OR NO CLOUDS BELOW 12000 FEET WITH NO
SIGNIFICANT WEATHER AND/OR OBSTRUCTIONS TO VISIBILITY.

COZ001>005-013-030-031-010400-
...NORTHWEST COLORADO...

CITY           SKY/WX    TMP DP  RH WIND       PRES   REMARKS
CRAIG          MOCLDY    58  43  57 SW6       30.06R
HAYDEN         MOCLDY    57  43  58 NW3       30.08R
MEEKER         CLEAR     62  43  49 SE6       30.06R
MOUNT WERNER   NOT AVBL
STEAMBOAT SPGS CLOUDY    56  47  71 E3        30.10R
WALDEN         CLEAR     50  37  62 E3        30.15R
$$

COZ006>008-011-010400-
...WEST CENTRAL VALLEYS...

CITY           SKY/WX    TMP DP  RH WIND       PRES   REMARKS
GRAND JUNCTION CLEAR     70  39  32 W10       29.91R
MONTROSE       PTCLDY    67  41  38 NE5       29.99R
EAGLE          CLEAR     66  41  39 CALM      30.07R
RIFLE          CLEAR     70  37  29 NW6       29.97R
DELTA          NOT AVBL
NUCLA          PTCLDY    73  30  20 NW7       30.03R
$$

COZ017>023-064>068-010400-
...SOUTHWEST COLORADO...

CITY           SKY/WX    TMP DP  RH WIND       PRES   REMARKS
DURANGO        CLEAR     72  33  24 W8        30.08R
CORTEZ         CLEAR     72  36  26 VRB3      30.02R
PAGOSA SPRINGS CLEAR     68  30  24 CALM      30.17R
TELLURIDE      PTCLDY    64  30  27 CALM      30.26R
WOLF CREEK PAS NOT AVBL
$$

COZ009-010-012-014-032>034-037-058>063-010400-
...CENTRAL COLORADO...

CITY           SKY/WX    TMP DP  RH WIND       PRES   REMARKS
ASPEN          PTCLDY    58  39  49 SW6       30.12R
BUENA VISTA    PTCLDY    56  36  47 CALM      30.13R
COPPER MTN     PTCLDY    50  28  43 SW17G25   30.39R
BERTHOUD PASS  FOG       36  34  93 NW16      30.42R VSB<1/4
COTTONWOOD PAS PTCLDY    59  28  31 N3        30.26R
GUNNISON       PTCLDY    57  39  51 N7        30.14R
KREMMLING      PTCLDY    55  39  54 CALM      30.13R
LEADVILLE      PTCLDY    51  28  41 NW9       30.25R
MONARCH PASS   CLOUDY    48  30  49 W25G47    30.50R
SALIDA         PTCLDY    68  33  27 NW6G18    30.17R
SUNLIGHT       CLEAR     48  39  71 CALM      30.34R
WILKERSON PASS NOT AVBL
$$

COZ069>075-010400-
...SAN LUIS VALLEY/SANGRE DE CRISTO MOUNTAINS...

CITY           SKY/WX    TMP DP  RH WIND       PRES   REMARKS
ALAMOSA        CLEAR     62  33  33 SW9       30.12R
LA VETA PASS   NOT AVBL
SAGUACHE       NOT AVBL
$$

COZ035-036-038>040-010400-
...NORTHERN COLORADO FRONT RANGE...

CITY           SKY/WX    TMP DP  RH WIND       PRES   REMARKS
DENVER INTL AP PTCLDY    61  51  70 SE3       29.97R
DMNS CITY PARK   N/A     60  53  77 NW2       29.97R
AURORA         PTCLDY    59  49  70 S8        29.98R
FRONT RANGE AP NOT AVBL
ERIE MUNI ARPT PTCLDY    60  55  83 CALM      29.96R
BOULDER MUN AP PTCLDY    61  55  82 S3        29.97R
CENTENNIAL     PTCLDY    60  49  66 SW7       29.99R
BROOMFIELD     MOCLDY    61  54  77 W6        29.99R
FORT COLLINS   PTCLDY    64  52  63 CALM      29.96R
LONGMONT       PTCLDY    62  56  83 SW5       29.97S
$$

COZ041-046-047-076>085-087-088-010400-
...PIKES PEAK/PALMER DIVIDE AND SOUTHERN FOOTHILLS...

CITY           SKY/WX    TMP DP  RH WIND       PRES   REMARKS
COLO. SPRINGS  PTCLDY    64  49  57 NE8       30.02R
A. F. ACADEMY  PTCLDY    61  49  64 SW3       30.04R
ELLICOTT       PTCLDY    61  49  64 E8        30.00R
FALCON         PTCLDY    58  47  69 CALM      30.08R
FORT CARSON    MOCLDY    67  50  54 W2        30.00R
LIMON          CLEAR     60  48  64 NE3       29.97R
MONUMENT HILL  CLEAR     52  46  82 SE7       30.07R
TRINIDAD       CLEAR     69  50  50 NE9       29.96R
$$

COZ042>045-048>051-090-091-010400-
...NORTHEAST COLORADO...

CITY           SKY/WX    TMP DP  RH WIND       PRES   REMARKS
GREELEY ARPT   PTCLDY    61  48  63 N8        29.94R
AKRON          LGT RAIN  63  53  70 SW9       29.94R
BURLINGTON     MOCLDY    63  54  72 N6        29.89R
WRAY             N/A     64  56  78 W3        29.86R
STERLING       CLOUDY    63  50  63 NE3       29.92R
HOLYOKE        PTCLDY    63  52  67 NW7       29.90R
FORT MORGAN    CLOUDY    64  51  64 N14G22    29.93R
$$

COZ086-089-092>099-010400-
...SOUTHEAST COLORADO...

CITY           SKY/WX    TMP DP  RH WIND       PRES   REMARKS
PUEBLO         PTCLDY    72  50  45 SE9       29.92R
LA JUNTA       PTCLDY    67  53  61 E7        29.88R
LAMAR          PTCLDY    67  53  61 N3        29.82R
SPRINGFIELD      N/A     69  55  60 N15       29.87R
$$


USA.gov is the U.S. government's official web portal to all federal, state and local government web resources and services.